Big Bear City, CA

8:22 PM PST on November 21, 2017 (GMT -0800)
Big Bear City

Weather History for KL35 - March, 2012

Change the Weather History Date:

Thursday, March 8, 2012

  Actual Average (KBUO) Record (KBUO)
Temperature  
Mean Temperature 36 °F -  
Max Temperature 48 °F 62 °F 75 °F (1997)
Min Temperature 24 °F 41 °F 39 °F (1998)
Degree Days  
Heating Degree Days 29    
Moisture  
Dew Point 2 °F    
Average Humidity 25    
Maximum Humidity 43    
Minimum Humidity 11    
Precipitation  
Precipitation 0.00 in - - ()
Sea Level Pressure  
Sea Level Pressure 30.31 in    
Wind  
Wind Speed 8 mph (ENE)    
Max Wind Speed 15 mph    
Max Gust Speed 24 mph    
Visibility 10 miles    
Events      
Averages and records for this station are not official NWS values.
T = Trace of Precipitation, MM = Missing Value Source: NWS Daily Summary

Daily Weather History Graph

Daily Weather History Graph

Search for Another Location

Airport or City:

Trip Planner

Search our weather history database for the weather conditions in past years. The results will help you decide how hot, cold, wet, or windy it might be!

Date:

Astronomy

Mar. 08, 2012 Rise Set
Actual Time 6:06 AM PST 5:50 PM PST
Civil Twilight 5:41 AM PST 6:15 PM PST
Nautical Twilight 5:12 AM PST 6:44 PM PST
Astronomical Twilight 4:43 AM PST 7:13 PM PST
Moon 6:37 PM PST (3/8) 5:56 AM PST (3/8)
Length of Visible Light 12h 33m
Length of Day
11h 43m
Full, 100% of the Moon is Illuminated
Mar 8
Full
Mar 14
Last Quarter
Mar 22
New
Mar 30
First Quarter
Apr 6
Full

Hourly Weather History & Observations

Time (PST) Temp. Windchill Dew Point Humidity Pressure Visibility Wind Dir Wind Speed Gust Speed Precip Events Conditions
12:35 AM 32.0 °F 24.8 °F -0.4 °F 25% 30.20 in 10.0 mi NE 8.1 mph 17.3 mph N/A   Clear
12:55 AM 32.0 °F 24.8 °F -0.4 °F 25% 30.20 in 10.0 mi NE 8.1 mph 17.3 mph N/A   Clear
1:15 AM 32.0 °F 21.6 °F -0.4 °F 25% 30.19 in 10.0 mi ENE 15.0 mph 24.2 mph N/A   Clear
1:35 AM 32.0 °F 22.1 °F 1.4 °F 27% 30.19 in 10.0 mi NE 13.8 mph 23.0 mph N/A   Clear
1:55 AM 32.0 °F 23.6 °F -0.4 °F 25% 30.20 in 10.0 mi NE 10.4 mph 20.7 mph N/A   Clear
2:15 AM 32.0 °F 24.2 °F -0.4 °F 25% 30.21 in 10.0 mi NE 9.2 mph - N/A   Clear
2:35 AM 32.0 °F 27.5 °F 1.4 °F 27% 30.22 in 10.0 mi East 4.6 mph - N/A   Clear
2:55 AM 30.2 °F 26.7 °F 1.4 °F 29% 30.22 in 10.0 mi NE 3.5 mph - N/A   Clear
3:15 AM 28.4 °F 23.3 °F 1.4 °F 31% 30.22 in 10.0 mi East 4.6 mph - N/A   Clear
3:35 AM 28.4 °F - 1.4 °F 31% 30.22 in 10.0 mi Calm Calm - N/A   Clear
3:55 AM 30.2 °F 22.6 °F 3.2 °F 32% 30.23 in 10.0 mi East 8.1 mph - N/A   Clear
4:15 AM 28.4 °F - 3.2 °F 34% 30.23 in 10.0 mi Calm Calm - N/A   Clear
4:35 AM 28.4 °F 23.3 °F 3.2 °F 34% 30.24 in 10.0 mi NE 4.6 mph - N/A   Clear
4:55 AM 26.6 °F 21.2 °F 3.2 °F 37% 30.25 in 10.0 mi East 4.6 mph - N/A   Clear
5:15 AM 26.6 °F 19.1 °F 3.2 °F 37% 30.26 in 10.0 mi ENE 6.9 mph - N/A   Clear
5:35 AM 26.6 °F 16.8 °F 3.2 °F 37% 30.25 in 10.0 mi East 10.4 mph - N/A   Clear
5:55 AM 26.6 °F 16.8 °F 3.2 °F 37% 30.26 in 10.0 mi ENE 10.4 mph - N/A   Clear
6:15 AM 24.8 °F 14.6 °F 3.2 °F 40% 30.26 in 10.0 mi ENE 10.4 mph - N/A   Clear
6:35 AM 24.8 °F 15.3 °F 5.0 °F 43% 30.26 in 10.0 mi East 9.2 mph - N/A   Clear
6:55 AM 32.0 °F 24.2 °F 3.2 °F 30% 30.28 in 10.0 mi East 9.2 mph - N/A   Clear
7:15 AM 32.0 °F 23.0 °F 3.2 °F 30% 30.28 in 10.0 mi East 11.5 mph - N/A   Clear
7:35 AM 33.8 °F 25.3 °F 3.2 °F 28% 30.30 in 10.0 mi East 11.5 mph - N/A   Clear
7:55 AM 35.6 °F 27.5 °F 3.2 °F 26% 30.31 in 10.0 mi ENE 11.5 mph - N/A   Clear
8:15 AM 35.6 °F 26.2 °F 3.2 °F 26% 30.31 in 10.0 mi ENE 15.0 mph - N/A   Clear
8:35 AM 37.4 °F 29.3 °F 3.2 °F 24% 30.32 in 10.0 mi ENE 12.7 mph - N/A   Clear
9:15 AM 39.2 °F 30.8 °F 3.2 °F 22% 30.33 in 10.0 mi ENE 15.0 mph - N/A   Clear
9:55 AM 39.2 °F 31.2 °F 1.4 °F 21% 30.35 in 10.0 mi NE 13.8 mph - N/A   Clear
10:15 AM 39.2 °F 31.6 °F 3.2 °F 22% 30.35 in 10.0 mi ENE 12.7 mph 17.3 mph N/A   Clear
10:35 AM 41.0 °F 33.5 °F 3.2 °F 21% 30.36 in 10.0 mi ENE 13.8 mph - N/A   Clear
10:55 AM 42.8 °F 36.6 °F 1.4 °F 18% 30.35 in 10.0 mi ENE 11.5 mph - N/A   Clear
11:15 AM 42.8 °F 36.2 °F 1.4 °F 18% 30.35 in 10.0 mi ENE 12.7 mph - N/A   Clear
11:35 AM 42.8 °F 37.0 °F 3.2 °F 19% 30.35 in 10.0 mi NE 10.4 mph - N/A   Clear
11:55 AM 44.6 °F 38.8 °F -0.4 °F 15% 30.34 in 10.0 mi NE 11.5 mph - N/A   Clear
12:15 PM 44.6 °F 39.7 °F -0.4 °F 15% 30.34 in 10.0 mi ENE 9.2 mph - N/A   Clear
12:35 PM 44.6 °F 40.2 °F -0.4 °F 15% 30.33 in 10.0 mi ENE 8.1 mph - N/A   Clear
12:55 PM 46.4 °F 41.9 °F -0.4 °F 14% 30.33 in 10.0 mi East 9.2 mph 17.3 mph N/A   Clear
1:15 PM 46.4 °F 41.9 °F -4.0 °F 12% 30.33 in 10.0 mi ENE 9.2 mph - N/A   Clear
1:35 PM 46.4 °F 41.9 °F -4.0 °F 12% 30.33 in 10.0 mi ENE 9.2 mph - N/A   Clear
1:55 PM 48.2 °F - -4.0 °F 11% 30.33 in 10.0 mi ENE 4.6 mph - N/A   Clear
2:15 PM 46.4 °F 42.9 °F -5.8 °F 11% 30.34 in 10.0 mi ENE 6.9 mph - N/A   Clear
2:35 PM 46.4 °F 41.1 °F -0.4 °F 14% 30.34 in 10.0 mi East 11.5 mph - N/A   Clear
2:55 PM 46.4 °F 41.5 °F -0.4 °F 14% 30.34 in 10.0 mi ENE 10.4 mph - N/A   Clear
3:15 PM 46.4 °F 43.5 °F -0.4 °F 14% 30.34 in 10.0 mi East 5.8 mph - N/A   Clear
3:35 PM 48.2 °F - -0.4 °F 13% 30.34 in 10.0 mi East 8.1 mph - N/A   Clear
3:55 PM 46.4 °F 41.9 °F -5.8 °F 11% 30.35 in 10.0 mi ENE 9.2 mph - N/A   Clear
4:15 PM 46.4 °F 42.4 °F -4.0 °F 12% 30.35 in 10.0 mi East 8.1 mph - N/A   Clear
4:35 PM 44.6 °F 40.7 °F -4.0 °F 13% 30.36 in 10.0 mi ENE 6.9 mph - N/A   Clear
4:55 PM 44.6 °F 40.2 °F -4.0 °F 13% 30.36 in 10.0 mi East 8.1 mph - N/A   Clear
5:15 PM 42.8 °F 38.0 °F -2.2 °F 15% 30.37 in 10.0 mi East 8.1 mph - N/A   Clear
5:35 PM 42.8 °F 39.3 °F -0.4 °F 16% 30.37 in 10.0 mi ENE 5.8 mph - N/A   Clear
5:55 PM 41.0 °F 39.0 °F 1.4 °F 19% 30.38 in 10.0 mi East 3.5 mph - N/A   Clear
6:15 PM 37.4 °F - 5.0 °F 26% 30.38 in 10.0 mi Calm Calm - N/A   Clear
6:35 PM 35.6 °F - 5.0 °F 28% 30.38 in 10.0 mi Calm Calm - N/A   Clear
6:55 PM 33.8 °F - 8.6 °F 35% 30.38 in 10.0 mi Calm Calm - N/A   Clear
7:15 PM 32.0 °F - 8.6 °F 38% 30.39 in 10.0 mi Calm Calm - N/A   Clear
7:35 PM 32.0 °F - 8.6 °F 38% 30.39 in 10.0 mi Calm Calm - N/A   Clear
7:55 PM 32.0 °F - 6.8 °F 35% 30.39 in 10.0 mi Calm Calm - N/A   Clear
8:15 PM 32.0 °F 28.7 °F 8.6 °F 38% 30.40 in 10.0 mi ENE 3.5 mph - N/A   Clear
8:35 PM 30.2 °F 26.7 °F 5.0 °F 34% 30.41 in 10.0 mi East 3.5 mph - N/A   Clear
8:55 PM 32.0 °F - 5.0 °F 32% 30.41 in 10.0 mi Calm Calm - N/A   Clear
9:15 PM 32.0 °F 25.6 °F 1.4 °F 27% 30.41 in 10.0 mi East 6.9 mph - N/A   Clear
9:35 PM 32.0 °F 25.6 °F 5.0 °F 32% 30.41 in 10.0 mi East 6.9 mph - N/A   Clear
9:55 PM 30.2 °F 24.3 °F 5.0 °F 34% 30.41 in 10.0 mi ENE 5.8 mph - N/A   Clear
10:15 PM 32.0 °F 25.6 °F 3.2 °F 30% 30.41 in 10.0 mi ENE 6.9 mph - N/A   Clear
10:35 PM 30.2 °F 23.4 °F 5.0 °F 34% 30.41 in 10.0 mi ENE 6.9 mph - N/A   Clear
10:55 PM 32.0 °F 25.6 °F 3.2 °F 30% 30.42 in 10.0 mi ENE 6.9 mph - N/A   Clear
11:15 PM 32.0 °F 25.6 °F 3.2 °F 30% 30.41 in 10.0 mi ENE 6.9 mph - N/A   Clear
11:35 PM 32.0 °F 25.6 °F 5.0 °F 32% 30.42 in 10.0 mi ENE 6.9 mph - N/A   Clear
11:55 PM 32.0 °F 25.6 °F 3.2 °F 30% 30.41 in 10.0 mi ENE 6.9 mph - N/A   Clear